Simultaneous Nadir Overpasses (SNOs) Predictions

Prediction of SNOs between LANDSAT-8 and METOP-B Satellite Orbit:

Table of predicted SNOs for the next 14.0 days since TLE Epoch: 8/29/2020
Index Date (LANDSAT-8) Time (LANDSAT-8) Lat,Lon (LANDSAT-8) SZA (LANDSAT-8 ) Date (METOP-B) Time (METOP-B) Lat,Lon (METOP-B) SZA (METOP-B ) Distance(km) Time Diff (sec)
1 08/29/2020 05:46:27 -81.17, -45.74 105.85 08/29/2020 05:46:17 -81.17, -45.93 105.88 3.23 10
2 08/29/2020 06:35:52 81.20, 122.33 74.23 08/29/2020 06:36:56 81.20, 122.18 74.24 2.73 64
3 09/01/2020 01:20:42 -81.19, 20.92 104.79 09/01/2020 01:20:36 -81.18, 20.74 104.82 3.17 6
4 09/01/2020 02:10:08 81.19,-171.40 75.23 09/01/2020 02:11:16 81.19,-171.57 75.25 2.84 68
5 09/03/2020 20:54:59 -81.18, 87.18 103.77 09/03/2020 20:54:57 -81.18, 87.02 103.78 2.78 2
6 09/03/2020 21:44:24 81.20,-104.79 76.31 09/03/2020 21:45:36 81.20,-104.94 76.32 2.56 72
7 09/06/2020 15:39:49 81.16, -14.27 77.25 09/06/2020 15:38:38 81.16, -14.34 77.22 1.17 71
8 09/06/2020 16:29:15 -81.19, 153.79 102.67 09/06/2020 16:29:17 -81.19, 153.68 102.69 2.03 2
9 09/09/2020 11:14:04 81.17, 52.30 78.35 09/09/2020 11:12:57 81.17, 52.27 78.32 0.39 67
